Location: Sungai Bunut
(2.6333°N, 113.7333°E)
Time: 03:18:39
(UTC+00:00)

S-56A Canister/Altair - Pass Details

Date: 11 December 2023
Orbit: 640 x 2488 km, 38.9° (Epoch: 24 February)

Event Time Altitude Azimuth Distance (km) Brightness Sun altitude
Rises 10:41:29 0° 299° (WNW) 3,552 11.5 -6.4°
Reaches altitude 10° 10:43:44 10° 294° (WNW) 2,788 11.1 -6.9°
Maximum altitude 10:50:24 55° 218° (SW) 1,562 9.5 -8.4°
Drops below altitude 10° 11:00:33 10° 143° (SE) 4,163 11.1 -10.8°
Sets 11:04:40 0° 139° (SE) 5,441 11.7 -11.7°
